COSMOS 2414

Last updated on Thu Aug 20 2026 00:03:29 GMT+0000 (Coordinated Universal Time)

1 28521U 05002A 26230.82344094 .00000070 00000+0 44660-4 0 9992 2 28521 82.9531 356.2606 0040912 149.1566 211.2014 13.87931950 92507
UTC large
Height (km)
Speed (km/s)
/
Latitude / Longitude
Inclination (degrees)
Orbital Period (minutes)
Azimuth
Elevation
Range (km)
Doppler Factor

Next 0 passes for location: London (51.5072 / 0.1276)

No passes found over London.
COSMOS 2414